Regional Weather Roundup
Issued by NWS Kansas City/Pleasant Hill, MO

Home | Current Version | Previous Version | Text Only | Print | Product List | Glossary On
Versions: 1 2 3 4 5 6 7 8 9 10 11 12 13 14 15 16 17 18 19 20 21 22 23 24 25 26 27 28 29 30 31 32 33 34 35 36 37 38 39 40 41 42 43 44 45 46 47 48
000
ASUS43 KEAX 301110
RWREAX

WEATHER ROUNDUP FOR EASTERN KANSAS AND NORTHWEST MISSOURI
NATIONAL WEATHER SERVICE KANSAS CITY/PLEASANT HILL MO
600 AM CDT SUN AUG 30 2015

KSZ040-057-103>105-MOZ028-029-037-043-301200-
...KANSAS CITY METROPOLITAN AREA...

CITY           SKY/WX    TMP DP  RH WIND       PRES   REMARKS
K.C. INTL      PTCLDY    66  60  81 E8        30.02S
K.C. DOWNTOWN  CLOUDY    70  67  90 NE6       30.01S
LEES SUMMIT    CLOUDY    69  67  93 E6        30.01F FOG
OLATHE - IXD   FOG       68  67  96 NE5       30.01F VSB 1/2
OLATHE - OJC   FOG       67  67 100 NE6       30.00F VSB 3/4
LAWRENCE       FOG       67  66  97 E3        30.01S VSB 1/2

$$

MOZ001>008-011>017-020>025-030>033-038>040-044>046-053-054-301200-
...NORTHERN AND CENTRAL MISSOURI...

CITY           SKY/WX    TMP DP  RH WIND       PRES   REMARKS
ST. JOSEPH     CLOUDY    60  60 100 CALM      30.03R FOG
MOSBY          SUNNY     63  63 100 CALM      30.02S
WHITEMAN AFB   FOG       67  67  99 NE5       29.99S VSB 1/2
CLINTON        CLEAR     68  68 100 CALM      29.99S FOG
SEDALIA        CLOUDY    70  68  93 E3        30.01S FOG
WARSAW         NOT AVBL
CHILLICOTHE      N/A     68  66  93 CALM      30.03S
KIRKSVILLE     FOG       68  66  93 NE5       30.04S VSB 1/2

$$

MOZ041-047>049-056>058-063>065-088>090-097-301200-
...EASTERN AND SOUTHERN MISSOURI...

CITY           SKY/WX    TMP DP  RH WIND       PRES   REMARKS
ST. LOUIS INTL MOCLDY    73  65  75 CALM      30.02R
SPIRIT OF STL  CLEAR     68  66  93 CALM      30.00S
COLUMBIA       MOCLDY    68  67  96 SE3       30.01S FOG
JEFFERSON CITY MOCLDY    66  65  96 CALM      30.01R FOG
ROLLA          PTCLDY    66  64  93 S7        30.01R
OSAGE BEACH    CLEAR     66  63  88 CALM      30.00R
SPRINGFIELD    PTCLDY    68  65  90 SE8       29.99S
BRANSON        CLOUDY    68  66  94 CALM      30.03R THUNDER
JOPLIN         FOG       67  67 100 VRB3      29.98F VSB 1/2
WEST PLAINS    MOCLDY    69  65  86 CALM      30.04R

$$

IAZ060-094-KSZ022-034>040-054-083-096-NEZ052-066-093-301200-
...KANSAS...SOUTHEAST NEBRASKA AND IOWA...

CITY           SKY/WX    TMP DP  RH WIND       PRES   REMARKS
TOPEKA         CLOUDY    62  61  96 CALM      30.02R
MANHATTAN      FOG       62  62 100 CALM      30.02S VSB 1/4
EMPORIA        FOG       63  62  97 CALM      30.02R VSB 1/2
CHANUTE        FOG       67  66  97 N5        29.99F VSB 3/4
WICHITA        PTCLDY    61  58  90 N5        30.02R
OMAHA          CLOUDY    63  62  97 S6        30.03S FOG
LINCOLN        CLOUDY    63  61  93 SW7       30.04S
FALLS CITY     PTCLDY    56  56 100 CALM      30.02S
LAMONI         FOG       64  63  96 E3        30.04S VSB 1/4
DES MOINES     FOG       61  59  93 CALM      30.03S VSB 1

$$




USA.gov is the U.S. government's official web portal to all federal, state and local government web resources and services.